{"data":{"norad_id":64179,"intl_designator":"2025-113K","name":"STARLINK-34194","alt_names":[],"object_type":"PAYLOAD","status":"ACTIVE","operator":null,"country":"US","launch_date":"2025-05-28","launch_site_code":"AFETR","launch_vehicle":null,"mission":null,"orbit_class":"UNKNOWN","rcs_meters":null,"size_class":null,"mass_kg":null,"dimensions":null,"purposes":["comms"],"wikipedia_slug":null,"has_3d_model":false,"image_url":null,"decayed_at":null,"tle_current":{"epoch":"2026-09-20T05:15:34.239456Z","epoch_age_seconds":164772,"freshness":"FRESH","line1":"1 64179U 25113K   26263.21914629  .00014629  00000+0  44315-3 0  9993","line2":"2 64179  53.1568 262.9399 0000925  77.6168 282.4939 15.34407695 74910","mean_motion":15.34407695,"eccentricity":9.25e-5,"inclination_deg":53.1568,"raan_deg":262.9399,"arg_perigee_deg":77.6168,"mean_anomaly_deg":282.4939,"bstar":0.00044315,"rev_number":7491,"period_min":93.847287438167,"perigee_km":462.04759353439,"apogee_km":463.31314474769,"semimajor_km":6840.817369141,"source":"CELESTRAK","updated_at":"2026-09-21T09:00:35.244493Z"}}}